Home > Weather > Yuma > Past weeks

Flag for USA Weather for the Past 2 Weeks in Yuma, Arizona, USA

Now
70 °F

Clear.


Feels Like: 77 °F
Forecast: 61 / 81 °F
Wind: 9 mph from South

Location: Yuma Marine Corps Air Station

Current Time: Apr 29, 2016 at 11:21:13 PM

Latest Report: Apr 29, 2016 at 9:57 PM


Visibility: 10 mi

Pressure: 29.78 "Hg

Humidity: 46%

Dew Point: 48 °F

Location of YumaLocation

Historic Weather in Yuma — Graph

°F

Yuma Temperature Yesterday

Maximum temperature yesterday: 76 °F (at 4:57 PM)
Minimum temperature yesterday: 58 °F (at 5:57 AM)
Average temperature yesterday: 67 °F

High & Low Weather Summary for the Past Weeks

 TemperatureHumidityPressure
High96 °F (Apr 20, 2:57 PM)75% (Apr 24, 6:57 AM)30.05 "Hg (Apr 24, 6:57 AM)
Low53 °F (Apr 26, 4:57 AM)5% (Apr 19, 1:57 PM)29.60 "Hg (Apr 27, 6:57 PM)
Average74 °F25%29.83 "Hg
* Reported Apr 14 8:57 PM — Apr 29 8:57 PM, Yuma, Weather by CustomWeather, © 2016

Note: Actual official high and low records may vary slightly from our data, if they occured in-between our weather recording intervals... More about our weather records

Advertising

Yuma Weather History for the Previous 24 Hours

Scroll right to see more
 ConditionsComfort  
Time TempWeatherWind HumidityBarometerVisibility
8:57 PM
Fri, Apr 29
73 °FClear.13 mph40%29.77 "Hg10 mi
7:57 PM77 °FPassing clouds.20 mph33%29.75 "Hg10 mi
6:57 PM83 °FSunny.6 mph17%29.73 "Hg10 mi
5:57 PM84 °FPassing clouds.9 mph16%29.74 "Hg10 mi
4:57 PM85 °FPassing clouds.10 mph16%29.76 "Hg10 mi
3:57 PM85 °FPassing clouds.10 mph19%29.79 "Hg10 mi
2:57 PM83 °FPassing clouds.10 mph20%29.82 "Hg10 mi
1:57 PM82 °FPassing clouds.8 mph23%29.85 "Hg10 mi
12:57 PM79 °FPartly sunny.9 mph26%29.87 "Hg10 mi
11:57 AM79 °FScattered clouds.10 mph28%29.90 "Hg10 mi
10:57 AM76 °FScattered clouds.8 mph30%29.92 "Hg10 mi
9:57 AM73 °FPassing clouds.10 mph34%29.90 "Hg10 mi
8:57 AM69 °FSunny.9 mph44%29.90 "Hg10 mi
7:57 AM65 °FSunny.7 mph49%29.89 "Hg10 mi
6:57 AM60 °FPassing clouds.6 mph53%29.86 "Hg10 mi
5:57 AM58 °FPassing clouds.3 mph58%29.85 "Hg10 mi
4:57 AM59 °FClear.5 mph56%29.84 "Hg10 mi
3:57 AM59 °FClear.7 mph58%29.84 "Hg10 mi
2:57 AM60 °FClear.9 mph53%29.82 "Hg10 mi
1:57 AM60 °FClear.6 mph53%29.83 "Hg10 mi
12:57 AM62 °FClear.9 mph48%29.83 "Hg10 mi
11:57 PM
Thu, Apr 28
62 °FClear.5 mph48%29.81 "Hg10 mi
Weather by CustomWeather, © 2016

See weather overviewHow to use our weather pages